Location: Bowman Observatory
(41.0326°N, 73.6210°W)
Time: 03:30:14
(UTC-05:00)

Cosmos 2297 - Visible Passes

Search period start: 22 December 2014 00:00
Search period end: 01 January 2015 00:00
Orbit: 838 x 857 km, 71.0° (Epoch: 21 December)

Date Brightness Start Highest point End Pass type
(mag) Time Alt. Az. Time Alt. Az. Time Alt. Az.
22 Dec 6.4 04:45:07 10° NNE 04:46:14 11° NE 04:47:21 10° NE visible
22 Dec 4.2 06:26:02 10° NNW 06:31:38 61° ENE 06:37:12 10° SE visible
23 Dec 6.4 04:32:03 10° NNE 04:32:57 10° NE 04:33:51 10° NE visible
23 Dec 4.2 06:12:47 10° NNW 06:18:22 60° ENE 06:23:56 10° SE visible
24 Dec 6.4 04:19:05 10° NE 04:19:40 10° NE 04:20:15 10° NE visible
24 Dec 4.3 05:59:32 10° NNW 06:05:06 59° ENE 06:10:39 10° SE visible
25 Dec 4.3 05:46:17 10° NNW 05:51:50 57° ENE 05:57:23 10° SE visible
26 Dec 4.3 05:33:05 10° NNW 05:38:35 56° ENE 05:44:07 10° SE visible
27 Dec 4.3 05:20:36 14° NNW 05:25:19 55° ENE 05:30:50 10° SE visible
28 Dec 4.3 05:08:10 20° N 05:12:03 54° ENE 05:17:34 10° SE visible
28 Dec 6.1 19:58:30 10° SSW 19:59:12 14° SSW 19:59:12 14° SSW visible
29 Dec 4.3 04:55:50 27° N 04:58:47 53° ENE 05:04:18 10° SE visible
29 Dec 5.0 06:38:23 10° NW 06:42:31 21° W 06:46:39 10° SSW visible
29 Dec 5.6 18:04:25 10° SE 18:05:19 12° ESE 18:05:19 12° ESE visible
29 Dec 5.5 19:45:14 10° SSW 19:47:19 24° SSW 19:47:19 24° SSW visible
30 Dec 4.3 04:43:34 36° N 04:45:31 52° ENE 04:51:01 10° SE visible
30 Dec 4.9 06:25:33 12° NW 06:29:16 22° W 06:33:27 10° SSW visible
30 Dec 5.4 17:51:16 10° SE 17:53:25 14° ESE 17:53:25 14° ESE visible
30 Dec 4.7 19:31:58 10° SSW 19:35:25 39° SW 19:35:25 39° SW visible
31 Dec 4.3 04:31:23 47° NNE 04:32:16 51° ENE 04:37:45 10° SE visible
31 Dec 4.9 06:13:23 16° WNW 06:16:01 22° W 06:20:15 10° SSW visible
31 Dec 5.3 17:38:07 10° SE 17:40:55 14° E 17:41:29 14° E visible
31 Dec 4.0 19:18:42 10° SSW 19:23:30 63° SW 19:23:30 63° SW visible
